QPF
0.02 0.02 0.01 0.00 0.00 0.00 0.01 0.01 0.02 0.01 0.00 0.00 0.00 0.00 0.00 0.00 0.00 0.00 0.01 0.00 0.00 0.00 0.00 0.00 0.00 0.00 0.00 0.00 0.00 0.00 0.00 0.00 0.00 0.00 0.00 0.00 0.00 0.00 0.01 0.00 0.00 0.00 0.00 0.00 0.00 0.00 0.00 0.00 0.00 0.00 0.00 0.00 0.01 0.00
0.01 0.01 0.01 0.00 0.00 0.00 0.00 0.01 0.01 0.00 0.00 0.00 0.00 0.00 0.00 0.00 0.00 0.00 0.01 0.01 0.00 0.00 0.00 0.00 0.00 0.00 0.00 0.00 0.00 0.00 0.00 0.01 0.00 0.00 0.00 0.00 0.00 0.00 0.00 0.01 0.00 0.00 0.00 0.00 0.00 0.00 0.00 0.00 0.00 0.00 0.00 0.00 0.00 0.00
0.01 0.01 0.02 0.01 0.01 0.00 0.00 0.00 0.01 0.01 0.01 0.00 0.00 0.00 0.00 0.00 0.00 0.00 0.01 0.00 0.00 0.00 0.00 0.00 0.00 0.00 0.00 0.00 0.00 0.00 0.01 0.00 0.01 0.00 0.00 0.00 0.00 0.01 0.00 0.01 0.01 0.00 0.00 0.00 0.00 0.00 0.00 0.00 0.00 0.00 0.00 0.00 0.00 0.00
0.01 0.02 0.02 0.01 0.01 0.00 0.00 0.00 0.00 0.01 0.01 0.01 0.00 0.00 0.00 0.00 0.00 0.00 0.00 0.00 0.00 0.00 0.00 0.01 0.00 0.00 0.00 0.00 0.00 0.00 0.00 0.00 0.00 0.00 0.00 0.00 0.01 0.01 0.00 0.01 0.00 0.00 0.00 0.00 0.00 0.00 0.00 0.00 0.00 0.00 0.00 0.00 0.00 0.00
0.01 0.02 0.02 0.01 0.01 0.00 0.00 0.00 0.00 0.01 0.01 0.01 0.00 0.00 0.00 0.00 0.00 0.00 0.00 0.00 0.00 0.00 0.01 0.01 0.01 0.00 0.00 0.00 0.00 0.00 0.00 0.00 0.00 0.00 0.01 0.00 0.01 0.00 0.00 0.02 0.00 0.00 0.00 0.00 0.00 0.00 0.00 0.00 0.00 0.00 0.00 0.00 0.00 0.00
0.01 0.02 0.02 0.02 0.01 0.00 0.00 0.00 0.00 0.00 0.00 0.01 0.00 0.00 0.00 0.00 0.00 0.01 0.00 0.00 0.00 0.01 0.00 0.00 0.02 0.03 0.00 0.00 0.00 0.00 0.00 0.00 0.00 0.00 0.00 0.00 0.01 0.00 0.00 0.01 0.00 0.00 0.00 0.00 0.00 0.00 0.00 0.00 0.00 0.00 0.00 0.00 0.00 0.00
0.01 0.01 0.01 0.01 0.01 0.01 0.00 0.00 0.00 0.00 0.01 0.01 0.00 0.00 0.00 0.01 0.01 0.01 0.00 0.01 0.01 0.00 0.00 0.00 0.01 0.01 0.00 0.00 0.00 0.00 0.00 0.00 0.00 0.00 0.00 0.00 0.01 0.01 0.00 0.00 0.00 0.00 0.00 0.00 0.00 0.00 0.00 0.00 0.00 0.00 0.00 0.00 0.00 0.00
0.01 0.00 0.00 0.00 0.00 0.00 0.00 0.00 0.00 0.00 0.01 0.01 0.00 0.00 0.01 0.01 0.00 0.00 0.00 0.00 0.00 0.00 0.00 0.00 0.01 0.00 0.00 0.00 0.00 0.00 0.00 0.00 0.00 0.00 0.00 0.00 0.00 0.00 0.00 0.00 0.00 0.00 0.00 0.00 0.00 0.00 0.00 0.00 0.00 0.00 0.00 0.00 0.00 0.00
0.02 0.01 0.01 0.00 0.00 0.00 0.00 0.00 0.00 0.01 0.02 0.00 0.00 0.01 0.02 0.00 0.00 0.00 0.00 0.00 0.00 0.00 0.01 0.00 0.00 0.01 0.00 0.00 0.00 0.00 0.00 0.00 0.00 0.00 0.00 0.00 0.00 0.01 0.00 0.00 0.00 0.00 0.00 0.00 0.00 0.00 0.00 0.00 0.00 0.00 0.00 0.00 0.00 0.00
0.03 0.02 0.01 0.01 0.00 0.00 0.00 0.00 0.00 0.01 0.02 0.00 0.02 0.01 0.00 0.00 0.01 0.00 0.00 0.00 0.00 0.00 0.00 0.00 0.00 0.01 0.00 0.00 0.00 0.00 0.00 0.00 0.01 0.00 0.00 0.00 0.00 0.00 0.00 0.00 0.00 0.00 0.00 0.00 0.00 0.00 0.00 0.00 0.00 0.00 0.00 0.00 0.00 0.00
0.03 0.03 0.02 0.01 0.01 0.00 0.00 0.00 0.01 0.02 0.02 0.01 0.01 0.00 0.01 0.01 0.00 0.00 0.00 0.00 0.00 0.00 0.00 0.00 0.00 0.01 0.00 0.00 0.00 0.00 0.01 0.01 0.00 0.01 0.00 0.00 0.00 0.00 0.00 0.00 0.00 0.00 0.00 0.00 0.00 0.00 0.00 0.00 0.00 0.00 0.00 0.00 0.00 0.00
0.01 0.02 0.02 0.02 0.01 0.00 0.00 0.00 0.01 0.01 0.01 0.01 0.00 0.00 0.01 0.00 0.00 0.00 0.00 0.01 0.00 0.00 0.00 0.00 0.00 0.02 0.02 0.02 0.03 0.01 0.01 0.00 0.00 0.01 0.00 0.00 0.00 0.00 0.00 0.00 0.00 0.00 0.00 0.00 0.00 0.00 0.00 0.00 0.00 0.00 0.00 0.00 0.00 0.00
0.00 0.00 0.01 0.02 0.02 0.01 0.00 0.00 0.00 0.01 0.03 0.01 0.00 0.01 0.00 0.00 0.00 0.00 0.01 0.01 0.00 0.00 0.00 0.00 0.00 0.02 0.01 0.01 0.01 0.00 0.00 0.00 0.01 0.01 0.00 0.00 0.00 0.00 0.00 0.00 0.00 0.00 0.00 0.00 0.00 0.00 0.00 0.00 0.00 0.00 0.00 0.00 0.00 0.00
0.00 0.00 0.00 0.02 0.03 0.02 0.00 0.00 0.00 0.02 0.01 0.00 0.00 0.01 0.00 0.01 0.00 0.00 0.00 0.00 0.00 0.00 0.00 0.00 0.00 0.00 0.00 0.00 0.00 0.00 0.00 0.00 0.00 0.00 0.00 0.00 0.00 0.00 0.00 0.00 0.00 0.00 0.00 0.00 0.00 0.00 0.00 0.00 0.00 0.00 0.00 0.00 0.00 0.00
0.00 0.00 0.01 0.02 0.03 0.02 0.01 0.01 0.01 0.01 0.00 0.00 0.01 0.01 0.00 0.02 0.00 0.02 0.03 0.01 0.00 0.00 0.00 0.00 0.00 0.00 0.00 0.00 0.00 0.00 0.00 0.00 0.00 0.01 0.00 0.00 0.00 0.00 0.00 0.00 0.00 0.00 0.00 0.00 0.00 0.00 0.00 0.00 0.00 0.00 0.00 0.00 0.00 0.00
0.00 0.00 0.01 0.02 0.03 0.03 0.03 0.03 0.01 0.00 0.00 0.00 0.00 0.00 0.01 0.01 0.00 0.00 0.02 0.05 0.01 0.00 0.00 0.00 0.00 0.00 0.00 0.00 0.00 0.00 0.00 0.00 0.01 0.00 0.00 0.00 0.00 0.00 0.00 0.00 0.00 0.00 0.00 0.00 0.00 0.00 0.00 0.00 0.00 0.00 0.00 0.00 0.00 0.00
0.00 0.00 0.01 0.03 0.04 0.04 0.02 0.00 0.00 0.00 0.00 0.00 0.00 0.00 0.00 0.00 0.00 0.00 0.00 0.05 0.06 0.01 0.00 0.01 0.01 0.00 0.00 0.00 0.00 0.00 0.00 0.00 0.00 0.00 0.00 0.00 0.00 0.00 0.00 0.00 0.00 0.00 0.00 0.00 0.00 0.00 0.00 0.00 0.00 0.00 0.00 0.00 0.00 0.00
0.01 0.02 0.01 0.02 0.02 0.02 0.01 0.00 0.02 0.01 0.00 0.00 0.00 0.00 0.00 0.00 0.00 0.00 0.00 0.01 0.05 0.01 0.01 0.02 0.05 0.02 0.01 0.00 0.01 0.00 0.00 0.00 0.00 0.00 0.00 0.00 0.00 0.00 0.00 0.00 0.00 0.00 0.00 0.00 0.00 0.00 0.00 0.00 0.00 0.00 0.00 0.00 0.00 0.00
0.04 0.03 0.02 0.01 0.00 0.00 0.01 0.00 0.01 0.01 0.00 0.00 0.00 0.00 0.00 0.00 0.00 0.00 0.00 0.00 0.01 0.01 0.01 0.00 0.02 0.02 0.01 0.00 0.00 0.00 0.00 0.00 0.00 0.00 0.00 0.00 0.00 0.00 0.00 0.00 0.00 0.00 0.00 0.00 0.00 0.00 0.00 0.00 0.00 0.00 0.00 0.00 0.00 0.00
0.03 0.02 0.01 0.00 0.01 0.01 0.00 0.00 0.00 0.01 0.00 0.00 0.00 0.00 0.00 0.00 0.00 0.00 0.00 0.00 0.00 0.00 0.00 0.00 0.00 0.00 0.00 0.00 0.00 0.00 0.00 0.00 0.00 0.00 0.00 0.00 0.00 0.00 0.00 0.00 0.00 0.00 0.00 0.00 0.00 0.00 0.00 0.00 0.00 0.00 0.00 0.00 0.00 0.00
0.03 0.04 0.02 0.01 0.01 0.01 0.00 0.00 0.00 0.00 0.00 0.00 0.00 0.00 0.00 0.00 0.00 0.00 0.00 0.00 0.00 0.00 0.00 0.00 0.00 0.00 0.00 0.00 0.00 0.00 0.00 0.00 0.00 0.00 0.00 0.00 0.00 0.00 0.00 0.00 0.00 0.00 0.00 0.00 0.00 0.00 0.00 0.00 0.00 0.00 0.00 0.00 0.00 0.00
0.02 0.02 0.02 0.01 0.00 0.00 0.00 0.00 0.00 0.00 0.00 0.00 0.00 0.00 0.00 0.00 0.00 0.00 0.00 0.00 0.00 0.00 0.00 0.00 0.00 0.00 0.00 0.00 0.00 0.00 0.00 0.00 0.00 0.00 0.00 0.00 0.00 0.00 0.00 0.00 0.00 0.00 0.00 0.00 0.00 0.00 0.00 0.00 0.00 0.00 0.00 0.00 0.00 0.00
0.01 0.01 0.00 0.00 0.00 0.00 0.00 0.00 0.00 0.00 0.00 0.00 0.01 0.00 0.00 0.01 0.00 0.00 0.00 0.00 0.00 0.00 0.00 0.00 0.00 0.00 0.00 0.00 0.00 0.00 0.00 0.00 0.00 0.00 0.00 0.00 0.00 0.00 0.00 0.00 0.00 0.00 0.00 0.00 0.00 0.00 0.00 0.00 0.00 0.00 0.00 0.00 0.00 0.00
0.02 0.01 0.00 0.00 0.00 0.00 0.00 0.00 0.00 0.00 0.00 0.01 0.01 0.00 0.00 0.00 0.00 0.00 0.00 0.00 0.00 0.00 0.00 0.00 0.00 0.00 0.00 0.00 0.00 0.00 0.00 0.00 0.00 0.00 0.00 0.00 0.00 0.00 0.00 0.00 0.00 0.00 0.00 0.00 0.00 0.00 0.00 0.00 0.00 0.00 0.00 0.00 0.00 0.00
0.00 0.00 0.00 0.00 0.00 0.00 0.00 0.00 0.00 0.00 0.00 0.00 0.00 0.00 0.00 0.00 0.00 0.00 0.00 0.00 0.00 0.00 0.00 0.00 0.00 0.00 0.00 0.00 0.00 0.00 0.00 0.00 0.00 0.00 0.00 0.00 0.00 0.00 0.00 0.00 0.00 0.00 0.00 0.00 0.00 0.00 0.00 0.00 0.00 0.00 0.00 0.00 0.00 0.00
0.00 0.00 0.00 0.00 0.00 0.00 0.00 0.00 0.00 0.00 0.00 0.00 0.00 0.00 0.00 0.00 0.00 0.00 0.00 0.00 0.00 0.00 0.00 0.00 0.00 0.00 0.00 0.00 0.00 0.00 0.00 0.00 0.00 0.00 0.00 0.00 0.00 0.00 0.00 0.00 0.00 0.00 0.00 0.00 0.00 0.00 0.00 0.00 0.00 0.00 0.00 0.00 0.00 0.00
0.00 0.00 0.00 0.00 0.00 0.00 0.00 0.00 0.00 0.00 0.00 0.00 0.00 0.00 0.00 0.00 0.00 0.00 0.00 0.00 0.00 0.00 0.00 0.00 0.00 0.00 0.00 0.00 0.00 0.00 0.00 0.00 0.00 0.00 0.00 0.00 0.00 0.00 0.00 0.00 0.00 0.00 0.00 0.00 0.00 0.00 0.00 0.00 0.00 0.00 0.00 0.00 0.00 0.00
0.00 0.00 0.00 0.00 0.00 0.00 0.00 0.00 0.00 0.00 0.00 0.00 0.00 0.00 0.00 0.00 0.00 0.00 0.00 0.00 0.00 0.00 0.00 0.00 0.00 0.00 0.00 0.00 0.00 0.00 0.00 0.00 0.00 0.00 0.00 0.00 0.00 0.00 0.00 0.00 0.00 0.00 0.00 0.00 0.00 0.00 0.00 0.00 0.00 0.00 0.00 0.00 0.00 0.00
0.00 0.00 0.00 0.00 0.00 0.00 0.00 0.00 0.00 0.00 0.00 0.00 0.00 0.00 0.00 0.00 0.00 0.00 0.00 0.00 0.00 0.00 0.00 0.00 0.00 0.00 0.00 0.00 0.00 0.00 0.00 0.00 0.00 0.00 0.00 0.00 0.00 0.00 0.00 0.00 0.00 0.00 0.00 0.00 0.00 0.00 0.00 0.00 0.00 0.00 0.00 0.00 0.00 0.00
0.00 0.00 0.00 0.00 0.00 0.00 0.00 0.00 0.00 0.00 0.00 0.00 0.00 0.00 0.00 0.00 0.00 0.00 0.00 0.00 0.00 0.00 0.00 0.00 0.00 0.00 0.00 0.00 0.00 0.00 0.00 0.00 0.00 0.00 0.00 0.00 0.00 0.00 0.00 0.00 0.00 0.00 0.00 0.00 0.00 0.00 0.00 0.00 0.00 0.00 0.00 0.00 0.00 0.00
0.00 0.00 0.00 0.00 0.00 0.00 0.00 0.00 0.00 0.00 0.00 0.00 0.00 0.00 0.00 0.00 0.00 0.00 0.00 0.00 0.01 0.00 0.00 0.00 0.00 0.00 0.00 0.00 0.00 0.00 0.00 0.00 0.00 0.00 0.00 0.00 0.00 0.00 0.00 0.00 0.00 0.00 0.00 0.00 0.00 0.00 0.00 0.00 0.00 0.00 0.00 0.00 0.00 0.00
0.00 0.00 0.00 0.00 0.00 0.00 0.00 0.00 0.00 0.00 0.00 0.00 0.00 0.00 0.00 0.00 0.00 0.00 0.00 0.00 0.00 0.00 0.00 0.00 0.00 0.00 0.00 0.00 0.00 0.00 0.00 0.00 0.00 0.00 0.00 0.00 0.00 0.00 0.00 0.00 0.00 0.00 0.00 0.00 0.00 0.00 0.00 0.00 0.00 0.00 0.00 0.00 0.00 0.00
0.00 0.00 0.00 0.00 0.00 0.00 0.00 0.00 0.00 0.00 0.00 0.00 0.00 0.00 0.00 0.00 0.00 0.00 0.00 0.00 0.00 0.00 0.00 0.00 0.00 0.00 0.00 0.00 0.00 0.00 0.00 0.00 0.00 0.00 0.00 0.00 0.00 0.00 0.00 0.00 0.00 0.00 0.00 0.00 0.00 0.00 0.00 0.00 0.00 0.00 0.00 0.00 0.00 0.00
MSLP
1009.37 1010.21 1010.87 1011.59 1012.34 1013.06 1013.72 1014.41 1015.23 1015.74 1016.22 1016.89 1017.38 1017.67 1017.90 1018.08 1017.87 1018.07 1018.45 1018.00 1018.60 1018.76 1018.10 1017.52 1017.39 1017.23 1017.07 1017.17 1017.54 1016.97 1016.38 1016.02 1016.06 1016.09 1016.02 1015.33 1014.45 1013.54 1013.38 1012.99 1012.71 1013.14 1013.39 1014.37 1014.68 1015.75 1017.52 1017.76 1016.49 1017.46 1019.61 1019.98 1020.06 1020.10
1009.24 1010.14 1010.83 1011.55 1012.30 1012.95 1013.70 1014.42 1015.11 1015.63 1016.25 1016.80 1017.32 1017.80 1018.03 1018.13 1018.22 1018.36 1018.57 1018.36 1018.59 1019.21 1018.71 1017.98 1017.52 1016.96 1017.12 1017.00 1017.27 1017.33 1017.38 1017.05 1017.13 1017.32 1017.13 1016.58 1015.73 1014.71 1014.21 1014.18 1014.23 1014.83 1015.49 1016.56 1017.67 1018.97 1019.91 1020.14 1020.08 1020.45 1020.59 1020.73 1020.85 1020.72
1009.15 1009.99 1010.74 1011.49 1012.19 1012.98 1013.68 1014.44 1015.02 1015.65 1016.17 1016.79 1017.41 1017.82 1018.07 1018.37 1018.45 1018.61 1019.14 1019.21 1019.20 1019.41 1018.88 1017.78 1016.59 1016.04 1016.24 1016.47 1016.61 1017.43 1017.52 1017.19 1017.23 1017.25 1017.44 1017.01 1016.60 1015.65 1015.34 1015.43 1015.73 1016.10 1016.11 1017.49 1018.68 1020.16 1020.53 1020.89 1021.20 1021.20 1021.13 1021.10 1021.19 1021.31
1008.74 1009.87 1010.78 1011.46 1012.18 1012.96 1013.78 1014.37 1015.09 1015.51 1016.23 1016.79 1017.43 1017.88 1018.06 1018.54 1018.64 1018.91 1019.27 1019.55 1019.66 1019.86 1019.10 1017.44 1015.92 1016.00 1015.96 1016.12 1016.50 1016.88 1017.14 1017.10 1017.19 1017.28 1017.53 1017.31 1017.00 1016.24 1016.05 1016.24 1016.70 1017.41 1017.58 1018.45 1019.69 1020.58 1021.04 1021.49 1021.72 1021.77 1021.70 1021.67 1021.78 1021.89
1009.20 1009.97 1010.74 1011.54 1012.21 1013.01 1013.80 1014.42 1015.09 1015.61 1016.25 1016.86 1017.37 1017.88 1018.36 1018.50 1018.85 1019.06 1019.38 1019.52 1019.61 1020.12 1019.45 1018.21 1016.89 1016.09 1016.06 1016.28 1016.41 1016.66 1017.01 1017.35 1017.68 1017.66 1017.59 1017.52 1016.77 1016.64 1016.43 1017.00 1018.37 1018.84 1019.27 1019.37 1020.06 1020.56 1021.14 1021.98 1022.13 1022.19 1022.24 1022.38 1022.63 1022.82
1009.21 1009.90 1010.68 1011.47 1012.21 1013.02 1013.77 1014.45 1015.16 1015.71 1016.31 1016.81 1017.44 1018.05 1018.37 1018.65 1018.91 1019.39 1019.58 1019.33 1019.43 1019.82 1019.87 1018.94 1017.11 1016.39 1016.31 1016.32 1016.46 1016.67 1016.89 1017.25 1017.62 1017.85 1017.57 1017.14 1016.61 1016.94 1017.60 1018.62 1019.53 1019.94 1020.10 1020.00 1020.69 1021.15 1021.60 1022.31 1022.54 1022.47 1022.74 1022.86 1023.31 1023.84
1009.22 1009.85 1010.68 1011.51 1012.30 1013.09 1013.77 1014.61 1015.20 1015.88 1016.39 1017.05 1017.57 1018.12 1018.43 1018.64 1019.11 1019.27 1019.41 1019.27 1019.24 1019.63 1019.84 1019.19 1017.80 1016.82 1016.51 1016.52 1016.80 1017.13 1017.09 1017.54 1017.85 1017.99 1017.73 1017.41 1016.98 1017.14 1017.83 1018.91 1019.87 1020.37 1020.77 1020.94 1021.33 1021.65 1022.33 1022.72 1022.80 1022.86 1023.03 1023.40 1024.15 1024.90
1009.40 1010.08 1010.88 1011.69 1012.41 1013.19 1013.94 1014.67 1015.33 1016.00 1016.63 1017.18 1017.82 1018.21 1018.54 1018.85 1019.18 1019.17 1018.77 1018.92 1019.25 1019.67 1019.87 1019.43 1018.35 1017.54 1017.06 1017.34 1017.51 1017.43 1017.88 1017.91 1017.89 1017.97 1017.61 1017.55 1017.28 1017.47 1018.37 1019.19 1019.89 1020.46 1020.99 1021.36 1021.76 1022.09 1022.49 1022.95 1023.19 1023.38 1023.61 1024.30 1025.10 1026.13
1009.66 1010.28 1011.03 1011.84 1012.52 1013.27 1014.03 1014.79 1015.48 1016.07 1016.67 1017.38 1017.92 1018.38 1019.04 1019.38 1019.28 1018.93 1018.67 1019.12 1019.51 1020.10 1019.66 1019.31 1018.60 1017.90 1017.40 1017.56 1017.86 1018.00 1018.00 1018.39 1017.96 1018.05 1017.78 1017.76 1017.86 1018.21 1018.30 1018.98 1019.89 1020.24 1020.71 1021.57 1022.10 1022.43 1022.94 1023.56 1024.25 1024.73 1025.15 1025.88 1026.35 1027.44
1009.61 1010.36 1011.30 1011.99 1012.69 1013.46 1014.17 1014.85 1015.53 1016.16 1016.85 1017.49 1018.29 1018.70 1018.77 1018.68 1018.36 1018.51 1019.34 1019.62 1019.80 1019.56 1019.58 1019.03 1018.32 1017.92 1017.77 1017.91 1018.14 1018.61 1018.48 1018.67 1018.52 1018.09 1017.74 1018.09 1019.10 1019.16 1019.08 1019.11 1019.83 1020.31 1020.97 1021.50 1022.14 1022.80 1023.52 1024.48 1025.12 1025.92 1026.81 1027.41 1027.92 1028.63
1009.75 1010.55 1011.32 1012.10 1012.83 1013.55 1014.26 1014.95 1015.65 1016.38 1017.09 1017.70 1018.07 1018.03 1017.83 1017.97 1018.34 1018.72 1019.14 1019.26 1019.36 1019.44 1018.96 1018.22 1017.74 1017.66 1017.48 1018.02 1018.31 1018.51 1018.74 1018.85 1018.84 1018.47 1018.62 1018.90 1019.54 1020.18 1020.18 1020.48 1020.81 1021.13 1021.64 1022.21 1022.76 1023.22 1023.74 1024.85 1026.04 1027.07 1027.90 1028.52 1029.19 1029.85
1010.12 1010.81 1011.53 1012.29 1012.96 1013.71 1014.42 1015.12 1015.86 1016.61 1016.87 1017.13 1017.33 1017.49 1017.68 1018.09 1018.31 1018.48 1018.57 1018.63 1018.53 1017.78 1017.54 1017.47 1017.13 1016.98 1017.18 1017.30 1018.03 1018.51 1018.91 1019.16 1018.92 1018.59 1019.19 1019.53 1020.26 1020.48 1020.97 1021.57 1022.03 1022.42 1022.97 1023.66 1024.24 1024.90 1025.59 1026.34 1027.17 1028.02 1028.89 1029.70 1030.44 1031.03
1010.61 1011.22 1011.88 1012.56 1013.17 1013.92 1014.61 1015.27 1015.90 1016.25 1016.54 1017.15 1017.50 1017.60 1017.62 1017.89 1017.70 1017.48 1017.03 1017.24 1017.03 1016.31 1016.67 1016.74 1017.06 1017.10 1017.40 1017.61 1018.21 1018.57 1019.00 1019.12 1018.61 1019.19 1019.53 1020.04 1020.59 1021.23 1021.88 1022.67 1023.43 1023.92 1024.49 1025.20 1025.97 1026.70 1027.32 1027.94 1028.39 1029.12 1030.04 1030.73 1031.40 1032.05
1011.05 1011.66 1012.23 1012.87 1013.52 1014.20 1014.80 1015.49 1016.20 1016.87 1017.26 1017.60 1017.58 1017.40 1017.26 1016.85 1016.31 1015.91 1015.67 1015.41 1015.29 1015.54 1016.10 1016.59 1017.33 1017.45 1017.84 1018.18 1018.69 1018.91 1018.90 1018.99 1019.29 1019.77 1019.75 1020.52 1021.25 1022.12 1022.92 1023.80 1024.54 1025.58 1026.26 1026.99 1027.73 1028.27 1028.89 1029.47 1030.16 1030.75 1031.19 1031.67 1032.25 1033.05
1011.43 1012.01 1012.58 1013.19 1013.78 1014.41 1015.04 1015.74 1016.59 1017.32 1017.60 1017.57 1017.09 1016.61 1016.34 1015.61 1015.42 1015.35 1015.09 1014.79 1014.97 1015.26 1015.88 1017.00 1017.52 1017.92 1018.33 1018.38 1018.65 1018.68 1018.91 1019.14 1019.18 1019.09 1019.79 1020.65 1021.77 1022.97 1024.11 1024.99 1025.80 1026.70 1027.42 1028.21 1028.82 1029.46 1030.05 1030.51 1030.99 1031.66 1031.80 1032.17 1032.50 1032.85
1011.76 1012.42 1012.93 1013.30 1013.92 1014.60 1015.42 1016.21 1017.29 1017.57 1017.66 1017.58 1017.11 1016.55 1015.94 1015.68 1015.68 1015.57 1015.23 1015.01 1014.81 1015.52 1015.99 1016.83 1017.86 1018.04 1018.19 1018.15 1018.50 1018.47 1018.69 1018.53 1018.57 1019.20 1020.16 1021.33 1022.57 1023.80 1024.84 1025.69 1026.50 1027.19 1027.89 1028.68 1029.38 1029.96 1030.47 1030.91 1031.22 1031.61 1031.79 1032.08 1032.30 1032.51
1011.95 1012.14 1012.73 1013.42 1014.18 1015.11 1015.98 1016.85 1017.55 1017.74 1017.58 1017.21 1016.83 1016.48 1016.46 1016.43 1016.04 1015.76 1015.64 1015.43 1014.89 1015.66 1016.45 1016.70 1017.41 1017.36 1017.71 1017.82 1018.03 1017.89 1018.04 1018.36 1019.04 1019.95 1020.93 1021.92 1023.11 1024.35 1025.31 1026.11 1026.81 1027.53 1028.28 1028.99 1029.62 1030.13 1030.49 1030.51 1030.88 1031.29 1031.64 1031.65 1031.76 1031.87
1012.15 1012.29 1012.91 1013.77 1014.73 1015.71 1016.55 1016.81 1016.94 1017.13 1017.19 1016.93 1016.85 1016.55 1016.52 1016.53 1016.37 1016.16 1015.87 1015.71 1015.80 1015.69 1015.94 1016.13 1016.24 1016.92 1017.34 1017.24 1017.36 1017.65 1018.44 1019.17 1019.81 1020.64 1021.67 1022.72 1023.78 1024.77 1025.51 1026.33 1027.04 1027.69 1028.34 1028.93 1029.32 1029.70 1029.98 1030.49 1030.58 1030.69 1030.80 1030.80 1031.07 1031.16
1012.01 1012.59 1013.32 1014.38 1015.01 1015.60 1016.46 1016.98 1016.92 1016.64 1016.69 1016.61 1016.72 1016.52 1016.43 1016.49 1016.47 1016.30 1016.25 1015.93 1015.70 1015.38 1015.69 1016.08 1016.76 1016.95 1017.08 1017.09 1017.44 1018.05 1018.82 1019.67 1020.67 1021.69 1022.65 1023.45 1024.19 1025.05 1025.82 1026.55 1027.11 1027.61 1028.13 1028.57 1028.96 1029.31 1029.54 1029.65 1029.82 1029.63 1029.83 1030.30 1030.75 1030.51
1012.38 1013.04 1013.79 1014.54 1014.72 1015.33 1015.80 1016.12 1016.10 1016.15 1016.11 1016.13 1016.30 1016.63 1016.59 1016.61 1016.55 1016.52 1016.55 1016.36 1016.13 1016.08 1016.39 1016.86 1017.12 1017.50 1017.73 1017.70 1017.61 1018.07 1018.99 1020.06 1020.98 1022.18 1023.22 1024.10 1024.71 1025.38 1026.02 1026.49 1026.95 1027.33 1027.91 1028.28 1028.59 1028.71 1029.01 1029.17 1029.16 1029.32 1029.63 1029.98 1030.42 1030.85
1013.07 1013.84 1014.33 1014.84 1015.34 1015.66 1015.54 1015.52 1015.43 1015.29 1015.60 1015.88 1015.92 1016.18 1016.38 1016.48 1016.70 1016.76 1016.69 1016.64 1016.77 1016.57 1016.63 1016.99 1017.73 1018.02 1018.15 1017.99 1018.02 1018.48 1019.45 1020.16 1020.94 1021.66 1022.69 1023.84 1024.80 1025.36 1025.98 1026.33 1026.67 1027.11 1027.60 1027.94 1028.23 1028.62 1028.72 1028.88 1028.90 1029.29 1029.70 1030.17 1030.50 1030.75
1013.38 1014.20 1014.98 1015.58 1015.52 1015.52 1015.39 1015.17 1015.02 1014.90 1015.42 1015.63 1015.97 1015.95 1016.24 1016.34 1016.29 1016.35 1016.45 1016.78 1016.62 1016.64 1016.91 1017.55 1018.04 1018.36 1018.69 1018.88 1018.89 1019.02 1019.50 1020.20 1020.97 1021.90 1022.92 1023.77 1024.45 1025.10 1025.63 1025.89 1026.35 1026.77 1027.06 1027.28 1027.60 1028.10 1028.48 1028.74 1029.04 1029.43 1029.82 1030.32 1030.07 1030.35
1013.66 1014.57 1015.16 1015.63 1015.72 1015.37 1015.19 1014.89 1014.88 1014.80 1015.16 1015.43 1015.62 1015.69 1015.82 1015.75 1015.83 1016.03 1016.39 1016.34 1016.67 1016.74 1016.90 1017.49 1017.96 1018.35 1018.86 1019.14 1019.20 1019.36 1019.59 1020.30 1021.26 1022.09 1022.89 1023.59 1024.10 1024.55 1025.04 1025.45 1025.77 1026.22 1026.48 1026.81 1027.04 1027.82 1028.49 1028.88 1029.33 1029.65 1029.95 1030.10 1030.34 1030.50
1013.69 1014.45 1014.75 1014.88 1014.82 1014.87 1014.83 1014.63 1014.62 1014.61 1014.66 1014.88 1015.07 1015.19 1015.40 1015.62 1015.92 1016.15 1016.11 1016.43 1016.88 1017.00 1017.49 1017.90 1018.35 1018.91 1019.37 1019.59 1019.93 1019.92 1020.22 1020.62 1021.48 1022.26 1022.73 1023.32 1023.94 1024.43 1024.77 1025.23 1025.62 1025.97 1026.09 1026.65 1027.31 1027.98 1028.49 1028.98 1029.35 1029.62 1029.83 1030.05 1030.18 1030.36
1014.25 1014.43 1014.45 1014.04 1014.03 1014.41 1014.29 1014.36 1014.28 1014.55 1014.50 1014.56 1014.61 1014.87 1015.13 1015.56 1016.00 1016.16 1016.09 1016.73 1017.28 1017.38 1017.80 1018.29 1018.66 1019.00 1019.47 1019.94 1020.15 1020.31 1020.46 1020.97 1021.69 1022.37 1022.78 1023.17 1024.02 1024.62 1025.27 1025.75 1026.20 1026.50 1026.53 1027.07 1027.69 1028.11 1028.54 1028.91 1029.22 1029.45 1029.63 1029.82 1030.04 1030.29
1013.27 1013.79 1013.96 1013.33 1013.50 1013.54 1013.68 1013.91 1014.11 1014.14 1014.32 1014.45 1014.66 1014.80 1015.14 1015.57 1016.02 1016.28 1016.89 1017.15 1017.29 1017.46 1017.77 1018.20 1018.71 1019.07 1019.56 1019.90 1020.56 1020.85 1021.06 1021.22 1021.87 1022.83 1023.50 1023.65 1024.23 1024.85 1025.65 1026.37 1026.87 1027.31 1027.05 1027.25 1027.77 1028.17 1028.49 1028.78 1029.06 1029.32 1029.53 1029.67 1029.83 1030.10
1012.77 1013.28 1013.34 1013.12 1013.14 1012.98 1013.42 1013.35 1013.55 1013.92 1014.33 1014.46 1014.77 1015.42 1015.82 1016.30 1016.74 1017.73 1018.03 1018.26 1017.87 1017.73 1017.79 1018.06 1018.41 1018.74 1019.52 1020.48 1021.23 1021.65 1021.72 1021.92 1022.83 1023.94 1024.60 1024.80 1025.17 1025.39 1025.72 1026.50 1026.97 1027.51 1027.49 1027.75 1028.03 1028.44 1028.80 1029.05 1029.27 1029.46 1029.65 1029.77 1029.90 1030.14
1013.28 1013.34 1013.37 1013.48 1013.49 1013.61 1013.87 1014.22 1014.43 1014.73 1014.89 1014.87 1015.12 1015.96 1016.69 1017.63 1018.75 1019.31 1019.30 1019.05 1018.47 1018.55 1018.78 1018.96 1018.97 1019.38 1020.45 1021.40 1022.06 1022.62 1023.41 1023.78 1024.19 1024.79 1025.35 1026.03 1026.48 1026.70 1026.83 1027.04 1027.45 1027.69 1028.13 1028.33 1028.56 1028.69 1028.85 1029.12 1029.47 1029.73 1030.01 1030.21 1030.41 1030.14
1013.53 1013.79 1013.98 1014.31 1014.55 1015.01 1015.58 1015.80 1015.84 1016.17 1016.43 1016.17 1016.35 1017.71 1018.89 1019.83 1020.56 1020.38 1020.21 1019.76 1019.47 1019.45 1019.82 1020.22 1020.81 1021.03 1021.72 1022.37 1022.92 1023.38 1023.92 1024.43 1024.90 1025.67 1026.23 1027.06 1027.62 1028.02 1027.91 1027.99 1028.29 1028.58 1028.84 1028.91 1028.84 1029.28 1029.24 1029.17 1029.40 1029.92 1030.19 1030.34 1030.29 1030.40
1013.94 1014.03 1014.57 1015.18 1015.73 1016.40 1017.08 1017.09 1017.13 1017.18 1017.18 1017.35 1018.23 1019.53 1020.60 1021.13 1021.46 1021.20 1020.99 1020.68 1020.43 1020.56 1020.81 1021.05 1021.47 1021.86 1022.56 1023.13 1023.92 1024.57 1024.93 1024.96 1025.22 1025.62 1026.20 1026.89 1027.27 1027.75 1028.03 1028.34 1028.60 1028.84 1029.02 1029.23 1029.29 1029.34 1029.22 1029.55 1029.58 1029.93 1030.49 1030.57 1030.77 1031.29
1013.91 1014.08 1014.80 1015.86 1016.89 1017.52 1017.80 1017.84 1017.65 1017.69 1017.94 1018.44 1018.94 1020.10 1021.13 1021.82 1022.04 1022.09 1022.04 1021.67 1021.10 1021.26 1021.58 1021.92 1022.35 1022.70 1023.19 1023.81 1024.45 1025.03 1025.88 1026.02 1025.86 1025.82 1026.00 1026.63 1027.31 1027.87 1028.30 1028.65 1028.80 1028.85 1029.27 1029.42 1029.58 1029.78 1029.95 1030.21 1030.56 1030.79 1031.14 1031.39 1031.69 1032.04
1014.30 1014.51 1015.32 1016.69 1017.85 1018.22 1018.24 1018.13 1017.99 1018.39 1019.00 1019.43 1020.12 1020.80 1021.57 1021.89 1022.90 1023.17 1023.09 1022.55 1022.00 1022.18 1022.22 1022.54 1023.09 1023.82 1024.18 1024.61 1025.03 1025.49 1025.90 1026.49 1026.63 1026.73 1026.99 1027.45 1028.00 1028.42 1028.67 1028.94 1029.08 1029.21 1029.67 1029.92 1030.09 1030.28 1030.52 1031.16 1031.48 1031.72 1032.02 1032.25 1032.51 1032.78
1014.89 1015.31 1015.95 1016.98 1017.89 1018.23 1018.23 1018.11 1018.37 1018.78 1019.20 1019.90 1020.61 1021.02 1021.87 1022.64 1023.67 1024.07 1023.90 1023.42 1023.04 1023.10 1023.50 1024.01 1024.45 1024.92 1025.46 1025.99 1026.57 1027.03 1027.35 1027.65 1027.64 1027.72 1028.03 1028.34 1028.66 1028.92 1029.23 1029.49 1029.63 1029.80 1030.21 1030.45 1030.72 1030.93 1031.38 1032.03 1032.32 1032.59 1032.89 1033.19 1033.42 1033.59
Thickness
5339 5339 5340 5342 5343 5344 5347 5348 5348 5351 5355 5356 5359 5364 5369 5373 5381 5385 5386 5394 5392 5390 5400 5406 5407 5406 5405 5403 5385 5402 5400 5408 5405 5414 5421 5428 5436 5453 5449 5459 5461 5445 5453 5434 5449 5453 5435 5418 5441 5434 5413 5406 5408 5409
5334 5334 5335 5338 5337 5340 5342 5344 5345 5347 5349 5353 5356 5358 5363 5369 5373 5378 5382 5386 5386 5383 5388 5397 5400 5404 5402 5405 5397 5396 5400 5405 5403 5394 5402 5416 5428 5433 5445 5435 5451 5432 5438 5424 5420 5410 5398 5399 5401 5398 5398 5396 5396 5402
5328 5329 5331 5333 5334 5334 5337 5338 5341 5343 5346 5349 5351 5354 5359 5362 5367 5373 5372 5375 5378 5375 5379 5390 5405 5410 5407 5405 5404 5390 5394 5402 5402 5405 5394 5409 5416 5430 5423 5426 5432 5437 5440 5417 5412 5397 5395 5393 5391 5392 5396 5397 5397 5395
5326 5325 5325 5328 5331 5330 5331 5334 5336 5341 5342 5346 5347 5350 5356 5357 5362 5364 5367 5369 5370 5370 5377 5392 5408 5407 5407 5405 5402 5399 5397 5398 5399 5398 5398 5410 5405 5424 5426 5429 5417 5421 5421 5416 5401 5393 5391 5387 5385 5386 5387 5388 5388 5386
5317 5318 5320 5322 5325 5326 5326 5330 5332 5335 5338 5340 5343 5347 5349 5355 5356 5359 5362 5364 5367 5366 5373 5376 5393 5405 5403 5402 5402 5400 5396 5393 5387 5387 5386 5392 5407 5410 5416 5417 5401 5401 5399 5404 5395 5393 5387 5378 5379 5379 5378 5376 5375 5374
5310 5314 5316 5318 5320 5321 5323 5326 5328 5331 5333 5337 5340 5342 5346 5349 5352 5353 5352 5362 5364 5364 5363 5370 5390 5399 5399 5401 5401 5399 5397 5392 5387 5387 5389 5398 5413 5400 5397 5385 5388 5385 5388 5390 5382 5381 5377 5371 5371 5374 5369 5371 5366 5362
5304 5308 5311 5313 5315 5317 5320 5321 5325 5326 5331 5333 5336 5338 5342 5345 5348 5350 5352 5360 5361 5361 5361 5365 5381 5393 5398 5401 5394 5390 5394 5388 5384 5383 5386 5393 5401 5403 5374 5373 5377 5376 5375 5376 5375 5375 5369 5366 5366 5368 5368 5365 5356 5349
5298 5302 5305 5307 5309 5312 5315 5318 5321 5323 5326 5329 5331 5334 5337 5340 5341 5345 5354 5357 5357 5357 5358 5365 5368 5380 5393 5381 5381 5388 5382 5384 5384 5382 5386 5391 5394 5391 5383 5382 5377 5375 5373 5371 5369 5367 5364 5361 5361 5360 5359 5352 5343 5333
5291 5295 5298 5302 5305 5308 5311 5314 5316 5320 5323 5324 5326 5328 5329 5332 5337 5344 5351 5351 5351 5351 5358 5363 5368 5352 5387 5386 5382 5384 5386 5383 5385 5374 5385 5386 5376 5369 5384 5380 5371 5375 5374 5366 5366 5364 5359 5352 5346 5343 5340 5333 5329 5319
5287 5291 5292 5296 5300 5303 5306 5310 5312 5315 5317 5318 5319 5322 5327 5333 5340 5345 5342 5344 5344 5352 5356 5365 5370 5365 5379 5377 5371 5382 5379 5367 5366 5380 5386 5368 5358 5373 5380 5381 5371 5371 5368 5368 5362 5358 5351 5341 5336 5330 5321 5316 5313 5307
5282 5286 5289 5292 5296 5299 5302 5305 5307 5309 5310 5312 5314 5323 5332 5335 5338 5339 5340 5346 5347 5353 5356 5364 5373 5364 5380 5362 5368 5376 5360 5365 5363 5373 5364 5358 5362 5360 5358 5358 5359 5359 5360 5358 5355 5352 5350 5339 5327 5318 5311 5305 5299 5293
5276 5280 5284 5287 5291 5294 5297 5299 5301 5303 5307 5312 5318 5323 5328 5331 5334 5342 5344 5347 5351 5364 5367 5361 5369 5380 5370 5381 5370 5373 5366 5359 5366 5368 5354 5345 5358 5359 5354 5349 5347 5345 5345 5343 5341 5336 5331 5325 5316 5308 5300 5292 5285 5280
5267 5272 5276 5280 5284 5287 5290 5292 5294 5299 5304 5307 5311 5316 5325 5327 5339 5341 5354 5357 5350 5370 5371 5368 5371 5376 5369 5369 5357 5375 5371 5346 5363 5353 5362 5356 5358 5354 5350 5342 5337 5335 5334 5331 5326 5319 5312 5308 5305 5299 5290 5282 5275 5266
5260 5265 5270 5274 5277 5280 5282 5285 5287 5291 5295 5298 5307 5319 5322 5331 5334 5349 5358 5368 5372 5376 5374 5369 5359 5361 5358 5360 5360 5373 5373 5368 5377 5360 5363 5356 5353 5345 5342 5335 5328 5319 5315 5311 5305 5301 5295 5290 5282 5277 5271 5264 5258 5250
5255 5260 5264 5268 5272 5274 5277 5279 5281 5283 5287 5296 5309 5323 5320 5337 5356 5357 5363 5369 5372 5374 5372 5358 5355 5356 5360 5369 5368 5373 5371 5366 5360 5374 5367 5355 5345 5333 5326 5322 5315 5309 5304 5299 5293 5287 5281 5277 5274 5266 5261 5256 5250 5242
5252 5255 5260 5266 5269 5271 5272 5274 5274 5278 5284 5292 5307 5317 5330 5346 5349 5353 5359 5368 5371 5365 5361 5361 5354 5360 5368 5369 5367 5373 5369 5366 5373 5364 5354 5346 5337 5328 5321 5316 5310 5306 5301 5294 5288 5284 5279 5272 5267 5262 5255 5249 5243 5236
5252 5259 5261 5264 5265 5266 5267 5268 5269 5276 5283 5297 5307 5315 5318 5326 5341 5348 5352 5358 5366 5361 5358 5354 5349 5370 5357 5356 5373 5364 5355 5371 5360 5354 5349 5343 5332 5322 5316 5311 5306 5303 5296 5290 5284 5280 5273 5269 5264 5259 5250 5243 5238 5234
5252 5259 5261 5262 5262 5261 5262 5267 5273 5281 5288 5293 5300 5317 5315 5322 5333 5338 5345 5351 5357 5356 5358 5363 5365 5365 5347 5359 5351 5356 5359 5356 5353 5348 5341 5334 5324 5317 5314 5308 5303 5299 5293 5288 5283 5277 5271 5263 5259 5254 5250 5243 5235 5229
5257 5259 5260 5259 5262 5264 5263 5266 5274 5284 5284 5295 5296 5306 5316 5319 5324 5331 5335 5343 5350 5359 5356 5354 5357 5351 5354 5367 5366 5357 5354 5344 5342 5335 5330 5325 5319 5314 5308 5304 5300 5296 5291 5286 5281 5275 5269 5263 5259 5256 5249 5239 5227 5224
5257 5258 5259 5259 5264 5265 5270 5275 5281 5289 5293 5296 5302 5307 5316 5320 5320 5327 5333 5338 5344 5350 5354 5350 5350 5354 5355 5354 5355 5358 5349 5341 5334 5327 5322 5317 5311 5309 5305 5303 5299 5294 5287 5281 5278 5273 5267 5261 5255 5247 5237 5226 5213 5202
5255 5255 5256 5259 5262 5265 5275 5281 5288 5297 5296 5300 5309 5313 5315 5316 5320 5326 5331 5336 5336 5345 5353 5347 5343 5341 5338 5343 5348 5350 5342 5338 5334 5330 5325 5318 5310 5308 5303 5300 5295 5290 5284 5277 5271 5262 5257 5252 5247 5238 5223 5211 5202 5193
5259 5259 5260 5260 5268 5273 5280 5287 5296 5302 5302 5307 5310 5315 5316 5321 5326 5328 5329 5332 5341 5343 5342 5335 5331 5333 5335 5336 5338 5345 5341 5336 5333 5326 5319 5314 5311 5305 5301 5298 5292 5287 5284 5275 5270 5261 5251 5243 5235 5225 5212 5200 5193 5183
5266 5265 5265 5267 5275 5282 5288 5295 5301 5308 5302 5307 5314 5318 5319 5324 5325 5326 5323 5334 5328 5330 5334 5332 5333 5335 5332 5331 5336 5337 5337 5334 5327 5322 5317 5313 5308 5304 5300 5294 5289 5283 5275 5269 5264 5253 5240 5230 5221 5211 5201 5192 5182 5172
5274 5275 5279 5283 5289 5281 5294 5303 5307 5311 5313 5316 5321 5323 5325 5325 5325 5325 5333 5326 5320 5326 5327 5330 5329 5327 5328 5331 5326 5327 5329 5328 5322 5318 5314 5311 5306 5302 5296 5289 5284 5277 5272 5263 5253 5241 5231 5219 5210 5200 5190 5180 5169 5159
5281 5284 5289 5299 5300 5299 5305 5304 5311 5312 5312 5317 5321 5321 5320 5319 5323 5330 5335 5328 5315 5317 5324 5325 5323 5325 5322 5318 5320 5322 5325 5322 5318 5313 5309 5307 5299 5293 5286 5279 5271 5265 5260 5249 5237 5230 5220 5209 5199 5189 5180 5169 5160 5149
5300 5292 5297 5308 5309 5314 5314 5314 5316 5320 5322 5318 5324 5321 5318 5325 5331 5337 5325 5322 5323 5325 5325 5325 5322 5321 5321 5323 5318 5317 5315 5316 5313 5304 5298 5297 5291 5285 5274 5264 5255 5247 5246 5238 5229 5218 5209 5200 5189 5178 5168 5160 5148 5136
5307 5302 5302 5307 5310 5319 5314 5320 5327 5318 5315 5324 5324 5321 5323 5331 5335 5308 5304 5305 5316 5319 5322 5324 5325 5325 5323 5316 5308 5305 5306 5305 5299 5289 5284 5281 5276 5272 5267 5258 5247 5238 5234 5225 5215 5205 5194 5184 5174 5165 5155 5145 5136 5126
5297 5300 5304 5306 5309 5311 5315 5315 5315 5312 5315 5317 5325 5330 5332 5311 5295 5288 5292 5300 5311 5312 5312 5313 5317 5317 5308 5300 5296 5293 5288 5286 5282 5277 5272 5265 5259 5254 5249 5243 5236 5227 5218 5209 5200 5190 5181 5170 5160 5150 5139 5128 5118 5111
5300 5296 5295 5292 5298 5294 5288 5295 5301 5296 5295 5306 5318 5299 5286 5280 5276 5282 5287 5296 5301 5303 5302 5301 5298 5298 5294 5290 5288 5285 5281 5276 5271 5261 5251 5241 5236 5234 5232 5226 5219 5211 5202 5194 5185 5176 5166 5156 5146 5135 5125 5116 5107 5097
5297 5300 5295 5292 5291 5289 5280 5284 5283 5285 5292 5291 5288 5280 5274 5270 5274 5279 5282 5288 5293 5293 5293 5293 5291 5290 5286 5283 5278 5271 5267 5266 5262 5255 5247 5238 5233 5227 5220 5212 5205 5197 5189 5180 5170 5161 5153 5143 5133 5122 5112 5102 5090 5077
5303 5307 5301 5292 5283 5280 5278 5281 5286 5289 5290 5289 5284 5272 5269 5264 5268 5271 5273 5278 5287 5285 5285 5284 5282 5280 5277 5271 5265 5258 5251 5250 5248 5246 5242 5234 5225 5216 5208 5200 5193 5185 5177 5167 5158 5147 5136 5127 5118 5108 5098 5083 5071 5060
5303 5304 5293 5279 5273 5274 5280 5287 5293 5288 5285 5277 5273 5270 5270 5271 5259 5260 5264 5269 5276 5277 5277 5275 5272 5265 5262 5259 5255 5250 5246 5238 5233 5230 5224 5217 5209 5201 5194 5186 5178 5170 5161 5152 5143 5133 5123 5112 5100 5087 5075 5064 5052 5041
5299 5293 5286 5279 5273 5276 5280 5288 5289 5289 5291 5285 5277 5277 5267 5259 5251 5251 5254 5259 5264 5263 5261 5257 5254 5251 5247 5242 5236 5231 5226 5222 5218 5213 5206 5200 5193 5185 5178 5171 5163 5155 5146 5137 5127 5117 5105 5094 5081 5070 5058 5046 5035 5025